Погода в Судогде

Россия / Владимирская область     55°56′59″N   40°51′22″E
темп.,
°C
ветер,
м/с
пор.,
м/с
влажн.,
%
обл.,
%
осадки,
мм/ч
давл.,
гПа
погр.,
м
13 мая, чт
чт1300:00+13юв27845 0.0 1020205
03:00+12ююв279696 0.0 1021234
06:00+13юв1594100 0.1 1021360
09:00+16юв35685 0.1 10201004
12:00+21юв364590 0.0 10181527
15:00+14юв2595100 16.7 1018272
18:00+14вюв239215 1.8 1016156
21:00+12в229812 1.8 101737
14 мая, пт
пт1400:00+11юв229885 0.0 101748
03:00+10юв22968 0.0 101828
06:00+12ююв2692100 0.0 1018162
09:00+17ююв3675100 0.0 1018480
12:00+21ююв4655100 0.0 10181333
15:00+23юв4649100 0.0 10161924
18:00+21юв3765100 0.0 1015510
21:00+16вюв31190100 1.3 1014260
15 мая, сб
сб1500:00+15вюв269680 1.5 1013117
03:00+14юв2598100 1.8 101393
06:00+15в2498100 0.7 1012130
09:00+20вюв4683100 1.1 1011488
12:00+22ю3575100 1.7 1011775
15:00+22ю4117393 5.0 10111465
18:00+20ююз510815 1.1 1011922
21:00+15ююз27961 3.1 1012146
16 мая, вс
вс1600:00+14ююз259798 0.0 1013112
03:00+12ююз23961 0.0 101357
06:00+14ю259571 0.0 1014159
09:00+18ююз3677100 0.0 1014541
12:00+22ююз485181 0.0 10142002
15:00+24юз59473 0.0 10132315
18:00+20юз47610 0.0 1014903
21:00+14юз12870 0.0 101511
17 мая, пн
пн1700:00+13з119297 0.0 101610
03:00+12св1192100 0.0 101710
06:00+13св118722 0.0 101769
09:00+19в226375 0.0 1017638
12:00+23в23485 0.0 10161100
15:00+25вюв344858 0.0 10151388
18:00+23в376322 0.0 1015494
21:00+17в3119396 0.8 1015238